User: anonymous
Location: Springfield
(37.2150°N, 93.2980°W)
Time: 06:33:09
(UTC-05:00)
Language:

Iridium 62 - Orbit

View from above orbital plane
View from above orbital plane
View from above satellite
View from above satellite

Ground track
Ground track

The orbit data is extracted from the following two-line orbital elements,

1 25285U 98021A   14259.12843328  .00000173  00000-0  54678-4 0  9236
2 25285 086.3923 284.0127 0002405 105.4402 254.7060 14.34218137860963
Epoch (UTC): 16 September 2014 03:04:56
Eccentricity: 0.0002405
inclination: 86.3923°
perigee height: 776 km
apogee height: 779 km
right ascension of ascending node: 284.0127°
argument of perigee: 105.4402°
revolutions per day: 14.34218137
mean anomaly at epoch: 254.7060°
orbit number at epoch: 86096

The dashed part of the orbit path shows where the satellite is in the earth's shadow,  

DLR